Montana Department of Transportation

Main Content

Accidents and Incidents Report

Hourly Weather Roundup

ASUS45 KTFX 190710
RWRMT 
MONTANA REGIONAL WEATHER ROUNDUP
NATIONAL WEATHER SERVICE GREAT FALLS MT
1200 AM MST MON FEB 19 2018

NOTE: "FAIR" INDICATES FEW OR NO CLOUDS BELOW 12000 FEET WITH NO
SIGNIFICANT WEATHER AND/OR OBSTRUCTIONS TO VISIBILITY.

MTZ001.007-043-190800-
WEST OF THE DIVIDE
  
CITY           SKY/WX    TMP DP  RH WIND       PRES   REMARKS
KALISPELL      FAIR       6  -6  57 NE15      29.96R WCI -12          
MISSOULA       FAIR       8  -6  52 E9        29.89S WCI  -5          
BUTTE          LGT SNOW  -3  -9  75 NW9       29.69F WCI -19          
MULLAN PASS    CLOUDY    -4  -7  87 VRB7      29.57S WCI -18          
ANACONDA         N/A     -2  -9  71 N12       29.77R WCI -20          
DEER LODGE       N/A     -2  -9  71 N16       29.82S WCI -23          
HAMILTON         N/A      5  -2  72 MISG      29.81S                  
PLAINS           N/A      9  -3  58 CALM      29.96R                  
RONAN            N/A      3   0  85 SE6       29.92S WCI  -8          
--------------------------------

MTZ008-052.055-190800-
SOUTHWEST MONTANA
  
CITY           SKY/WX    TMP DP  RH WIND       PRES   REMARKS
BOZEMAN        LGT SNOW   4  -2  76 W10       29.79S WCI -11          
DILLON         LGT SNOW  -5  -5 100 NE20      29.67F FOG     WCI -28  
ENNIS          LGT SNOW   1  -6  71 N9G22     29.72S WCI -14          
W YELLOWSTONE  LGT SNOW   3   0  85 NW7       29.47S WCI  -9          
THREE FORKS      N/A      4  -4  69 N8        29.83S WCI  -9          
TWIN BRIDGES     N/A      3  -7  63 N18       29.71F WCI -17          
--------------------------------

MTZ009-010-012-014-046-048-049-054-190800-
EAST SLOPES AND CENTRAL MONTANA
  
CITY           SKY/WX    TMP DP  RH WIND       PRES   REMARKS
CUT BANK       CLOUDY    -9 -14  78 NW6       30.02S HAZE    WCI -22  
GREAT FALLS    LGT SNOW  -4  -9  79 N6        30.02S WCI -16          
MALMSTROM AFB  FLURRIES  -3  -6  88 N7        30.05S WCI -17          
HELENA         LGT SNOW   0  -7  72 NW8       29.94S WCI -14          
AUGUSTA        LGT SNOW  -6 -10  83 NE9       29.94S WCI -22          
BOWMANS CRNR   FLURRIES  -7 -10  85 N7        29.93F WCI -21          
FAIRFIELD      FLURRIES  -5 -10  78 N8        30.00F WCI -20          
POWER          LGT SNOW  -5  -9  81 N7        30.00F FOG     WCI -19  
RAYNESFORD     FLURRIES  -6 -11  80 SW5       29.98S                  
ULM            FLURRIES  -4  -8  84 N5        30.03S                  
WHITE SULPHUR    N/A     -2  -9  71 NE8G18    29.79R WCI -17          
--------------------------------

MTZ011-013-016-021-045-047-050-051-190800-
NORTH CENTRAL MONTANA
  
CITY           SKY/WX    TMP DP  RH WIND       PRES   REMARKS
HAVRE          CLOUDY   -10 -13  86 SW5       30.15S                  
LEWISTOWN      LGT SNOW  -5  -7  91 W8        29.95S FOG     WCI -20  
N BAR RANCH    CLOUDY    -6 -11  77 CALM      29.93F HAZE             
CHINOOK          N/A     -2  -8  78 CALM      30.17S                  
GEYSER         FLURRIES  -5  -9  84 NE3       29.96F                  
STANFORD       FLURRIES  -7 -10  87 N6        29.93F WCI -20          
WINIFRED       FLURRIES  -3  -6  87 N5        30.00F                  
--------------------------------

MTZ017.020-022.027-061-062-190800-
NORTHEAST MONTANA
  
CITY           SKY/WX    TMP DP  RH WIND       PRES   REMARKS
GLASGOW        CLOUDY     1  -4  79 NW7       30.14S WCI -12          
GLENDIVE       MOCLDY    -3  -7  82 N10       30.11F WCI -20          
JORDAN           N/A     -4  -9  79 CALM      30.09S                  
MALTA          CLOUDY    -9 -15  77 CALM      30.17S                  
SIDNEY         FAIR      -8 -12  83 CALM      30.18R                  
WOLF POINT     FAIR     -12 -19  71 CALM      30.18S                  
PLENTYWOOD       N/A     -2  -8  78 W6        30.13R WCI -14          
POPLAR           N/A     -9 -15  77 N3        30.19R                  
SCOBEY           N/A     -1 -11  63 CALM      30.09R--------------------------------

MTZ028.42-056.058-190800-
SOUTHCENTRAL AND SOUTHEAST MONTANA
  
CITY           SKY/WX    TMP DP  RH WIND       PRES   REMARKS
BAKER          LGT SNOW   2  -1  88 N7        30.03F FOG     WCI -11  
BILLINGS       LGT SNOW   1  -2  87 NE9       29.98R FOG     WCI -14  
LIVINGSTON     FAIR       0  -4  83 E18G28    29.80S WCI -21          
MILES CITY     LGT SNOW   3   0  87 N9        30.08S FOG     WCI -12  
BIG TIMBER     CLOUDY    -2  -8  78 NE9       29.89F WCI -18          
EKALAKA          N/A      2  -5  72 N5        29.91F                  
FORSYTH          N/A      1  -2  85 NE6       30.07R WCI -10          
HARLOWTON      FLURRIES  -3  -6  84 E8        29.91F WCI -18          
LAUREL           N/A      1  -4  78 NE10      30.00R HAZE    WCI -14  
--------------------------------

REGIONAL REPORTS...DAKOTAS
  
CITY           SKY/WX    TMP DP  RH WIND       PRES   REMARKS
WILLISTON      FAIR      -9 -14  78 CALM      30.17R                  
MINOT          FAIR      -3 -12  65 NW7       30.17R WCI -16          
DICKINSON      LGT SNOW   4  -1  80 N9        30.05S WCI -10          
BEACH          CLOUDY     1  -2  85 N7        30.08F WCI -11          
CROSBY         FAIR     -17 -22  76 SW8       30.16R WCI -34          
TIOGA          FAIR     -13 -15  92 CALM      30.14R                  
BISMARCK       CLOUDY     7  -1  70 N14       30.12F WCI -10          
GRAND FORKS    FAIR       7  -2  66 N15       30.16R WCI -10          
FARGO          FAIR       9   2  73 N21G28    30.07R WCI -11          
BUFFALO SD       N/A      4  -1  80 NE13      29.89F WCI -13          
RAPID CITY     LGT SNOW   4   0  83 N21G29    29.90F FOG     WCI -17  
--------------------------------

REGIONAL REPORTS...WYOMING/IDAHO/WASHINGTON
  
CITY           SKY/WX    TMP DP  RH WIND       PRES   REMARKS
GILLETTE       CLOUDY     1  -3  83 N14       29.86R WCI -17          
SHERIDAN       MOCLDY     2  -2  83 N3        29.93R                  
BUFFALO WY     CLOUDY     1  -3  83 N8        29.83R WCI -13          
CODY           CLOUDY    -1  -7  75 VRB3      29.77F                  
YELLOWSTONE LA   N/A      6   3  87 CALM      29.44S                  
IDAHO FALLS    MOCLDY    26  21  81 SW17      29.52S WCI  13          
SALMON         CLOUDY    17   5  59 N13       29.64S WCI   4          
BOISE          FAIR      26  21  81 E3        29.64R                  
SPOKANE        MOCLDY    14   2  58 NE15      29.84R WCI  -1          
--------------------------------

REGIONAL REPORTS...ALBERTA
  
CITY           SKY/WX    TMP DP  RH WIND       PRES   REMARKS
CALGARY        MOCLDY    -6 -13  71 CALM      30.03S                  
CARDSTON         N/A     -9 -15  77 E1          N/A                   
EDMONTON       CLOUDY     0 -11  60 SW7       30.09S WCI -13          
FORT MCMURRAY  FLURRIES   0  -6  78 SW7       30.00F WCI -13          
HIGH LEVEL     MOCLDY    14   3  62 NW6       29.95S WCI   5          
LETHBRIDGE     CLOUDY   -13 -18  77 SW6       30.10S WCI -27          
LLOYDMINSTER   PTCLDY   -11 -15  84 SW10      30.07S WCI -30          
MEDICINE HAT   MOCLDY   -11 -15  84 S3        30.17S                  
MILK RIVER       N/A    -13 -17  84 NW9         N/A  WCI -31          
ONEFOUR          N/A    -11 -15  84 NW7         N/A  WCI -26          
PEACE RIVER    PTCLDY     5  -4  66 W13       30.05F WCI -12          
PINCHER CREEK  LGT SNOW  -8 -11  84 W3        30.01F                  
--------------------------------

REGIONAL REPORTS...SASKATCHEWAN
  
CITY           SKY/WX    TMP DP  RH WIND       PRES   REMARKS
CYPRESS HILLS    N/A     -6 -11  77 NW2         N/A                   
ESTEVAN        PTCLDY   -18 -24  76 SW6       30.15R WCI -33          
MOOSE JAW        N/A     -8 -13  77 W6          N/A  WCI -21          
PRINCE ALBERT  CLEAR    -24 -29  76 CALM      30.17F                  
REGINA         CLEAR    -11 -15  84 NW6       30.13R WCI -25          
ROCKGLEN         N/A     -8 -13  77 W3N/A                   
SASKATOON      CLEAR    -15 -18  84 SW8       30.16S WCI -32          
SWIFT CURRENT  FLURRIES -13 -18  77 W12       30.07F WCI -33          
VAL MARIE        N/A    -11 -15  84 N2          N/A                   
--------------------------------